Location: Unspecified
(48.7670°N, 0.0000°E)
Time: 20:25:34
(UTC+00:00)

Courier 1B - Visible Passes

Search period start: 29 September 2020 00:00
Search period end: 09 October 2020 00:00
Orbit: 962 x 1209 km, 28.3° (Epoch: 28 September)

Date Brightness Start Highest point End Pass type
(mag) Time Alt. Az. Time Alt. Az. Time Alt. Az.
05 Oct 9.9 20:19:49 10° SSW 20:20:13 11° S 20:20:13 11° S visible
06 Oct 9.7 19:27:27 10° S 19:29:35 11° SSE 19:29:51 11° SSE visible
07 Oct 9.8 20:24:41 10° SSW 20:26:20 13° SSW 20:26:20 13° SSW visible
08 Oct 9.6 19:31:36 10° SSW 19:35:12 14° S 19:35:53 14° SSE visible
